{"data":{"norad_id":42801,"intl_designator":"2017-038A","name":"BULGARIASAT-1","alt_names":[],"object_type":"PAYLOAD","status":"ACTIVE","operator":null,"country":"BUL","launch_date":"2017-06-23","launch_site_code":"AFETR","launch_vehicle":null,"mission":null,"orbit_class":"UNKNOWN","rcs_meters":null,"size_class":null,"mass_kg":null,"dimensions":null,"purposes":["comms"],"wikipedia_slug":null,"has_3d_model":false,"image_url":null,"decayed_at":null,"tle_current":{"epoch":"2026-09-19T01:35:03.784128Z","epoch_age_seconds":151007,"freshness":"FRESH","line1":"1 42801U 17038A   26262.06601602  .00000007  00000+0  00000+0 0  9998","line2":"2 42801   0.0122 153.7989 0003041  43.2068 186.6478  1.00272635 33782","mean_motion":1.00272635,"eccentricity":0.0003041,"inclination_deg":0.0122,"raan_deg":153.7989,"arg_perigee_deg":43.2068,"mean_anomaly_deg":186.6478,"bstar":0,"rev_number":3378,"period_min":1436.0847303953,"perigee_km":35773.534454491,"apogee_km":35799.178899545,"semimajor_km":42164.493677018,"source":"CELESTRAK","updated_at":"2026-09-20T09:00:35.254812Z"}}}